When you browse on this site, cookies collect data to enhance your experience and personalize the content and advertising you see.
Visit our Privacy Policy to learn more. By continuing to use the site, you agree to this use of cookies and data.
  • în România
  • Lista ţărilor
  • Pe 7 zile
  • Temperatura apei
  • Hartă satelitară
  • Meteo pe hartă
  • Widget-uri
  • user-avatar
    Intrare

    Meteo pe oră la Mérida

    Astăzi, 19 Aprilie, Vineri

    Timp Temperatura Precipitaţii Vânt Presiune Umiditate
    00:00 +16°C° 0.5 mm 1 m/s 593 mmHg 88%
    01:00 +16°C° 0.5 mm 1 m/s 593 mmHg 88%
    02:00 +16°C° 0.7 mm 1 m/s 592 mmHg 88%
    03:00 +16°C° 0.7 mm 1 m/s 592 mmHg 88%
    04:00 +16°C° 0.7 mm 1 m/s 592 mmHg 88%
    05:00 +16°C° 0.6 mm 1 m/s 593 mmHg 87%
    06:00 +18°C° 0.6 mm 1 m/s 593 mmHg 86%
    07:00 +18°C° 0.6 mm 1 m/s 594 mmHg 86%
    08:00 +19°C° 0.6 mm 1 m/s 594 mmHg 85%
    09:00 +19°C° 0.6 mm 1 m/s 595 mmHg 83%
    10:00 +20°C° 0.6 mm 1 m/s 595 mmHg 82%
    11:00 +20°C° 1.7 mm 1 m/s 595 mmHg 84%
    12:00 +20°C° 1.7 mm 1 m/s 594 mmHg 85%
    13:00 +20°C° 1.7 mm 1 m/s 594 mmHg 86%
    14:00 +19°C° 1.9 mm 1 m/s 593 mmHg 88%
    15:00 +19°C° 1.9 mm 1 m/s 592 mmHg 90%
    16:00 +18°C° 1.9 mm 1 m/s 592 mmHg 92%
    17:00 +18°C° 2.5 mm 1 m/s 592 mmHg 91%
    18:00 +18°C° 2.5 mm 1 m/s 592 mmHg 90%
    19:00 +18°C° 2.5 mm 1 m/s 593 mmHg 90%
    20:00 +18°C° 1 mm 1 m/s 593 mmHg 89%
    21:00 +18°C° 1 mm 1 m/s 593 mmHg 88%
    22:00 +18°C° 1 mm 1 m/s 594 mmHg 87%
    23:00 +18°C° 1.1 mm 1 m/s 593 mmHg 87%

    Mâine, 20 Aprilie, Sâmbătă

    Timp Temperatura Precipitaţii Vânt Presiune Umiditate
    00:00 +16°C° 1.1 mm 1 m/s 593 mmHg 88%
    01:00 +16°C° 1.1 mm 1 m/s 593 mmHg 88%
    02:00 +16°C° 1.1 mm 1 m/s 593 mmHg 88%
    03:00 +16°C° 1.1 mm 1 m/s 592 mmHg 88%
    04:00 +16°C° 1.1 mm 1 m/s 592 mmHg 88%
    05:00 +16°C° 1.2 mm 1 m/s 593 mmHg 88%
    06:00 +16°C° 1.2 mm 1 m/s 594 mmHg 87%
    07:00 +18°C° 1.2 mm 1 m/s 594 mmHg 86%
    08:00 +18°C° 1.5 mm 1 m/s 595 mmHg 85%
    09:00 +19°C° 1.5 mm 1 m/s 595 mmHg 84%
    10:00 +19°C° 1.5 mm 1 m/s 596 mmHg 84%
    11:00 +19°C° 1.8 mm 1 m/s 595 mmHg 84%
    12:00 +19°C° 1.8 mm 1 m/s 594 mmHg 85%
    13:00 +19°C° 1.8 mm 1 m/s 594 mmHg 86%
    14:00 +19°C° 2 mm 1 m/s 593 mmHg 88%
    15:00 +19°C° 2 mm 1 m/s 593 mmHg 89%
    16:00 +19°C° 2 mm 1 m/s 592 mmHg 91%
    17:00 +19°C° 1.6 mm 1 m/s 592 mmHg 91%
    18:00 +16°C° 1.6 mm 0 m/s 593 mmHg 92%
    19:00 +16°C° 1.6 mm 0 m/s 593 mmHg 92%
    20:00 +16°C° 1.2 mm 0 m/s 593 mmHg 92%
    21:00 +16°C° 1.2 mm 0 m/s 594 mmHg 91%
    22:00 +18°C° 1.2 mm 1 m/s 594 mmHg 90%
    23:00 +18°C° 1.5 mm 1 m/s 594 mmHg 89%

    Poimâine, 21 Aprilie, Duminică

    Timp Temperatura Precipitaţii Vânt Presiune Umiditate
    00:00 +16°C° 1.5 mm 1 m/s 593 mmHg 89%
    01:00 +16°C° 1.5 mm 1 m/s 593 mmHg 89%
    02:00 +16°C° 1.2 mm 1 m/s 592 mmHg 88%
    03:00 +16°C° 1.2 mm 1 m/s 592 mmHg 88%
    04:00 +16°C° 1.2 mm 1 m/s 592 mmHg 88%
    05:00 +16°C° 0.9 mm 1 m/s 593 mmHg 87%
    06:00 +16°C° 0.9 mm 1 m/s 593 mmHg 86%
    07:00 +18°C° 0.9 mm 1 m/s 594 mmHg 84%
    08:00 +18°C° 1.3 mm 1 m/s 594 mmHg 84%
    09:00 +18°C° 1.3 mm 1 m/s 595 mmHg 84%
    10:00 +19°C° 1.3 mm 1 m/s 595 mmHg 84%
    11:00 +19°C° 1.5 mm 1 m/s 595 mmHg 84%
    12:00 +20°C° 1.5 mm 1 m/s 594 mmHg 84%
    13:00 +20°C° 1.5 mm 1 m/s 594 mmHg 83%
    14:00 +20°C° 2.1 mm 1 m/s 593 mmHg 85%
    15:00 +19°C° 2.1 mm 1 m/s 593 mmHg 87%
    16:00 +19°C° 2.1 mm 1 m/s 592 mmHg 89%
    17:00 +19°C° 1.8 mm 1 m/s 592 mmHg 90%
    18:00 +18°C° 1.8 mm 1 m/s 592 mmHg 91%
    19:00 +18°C° 1.8 mm 1 m/s 593 mmHg 93%
    20:00 +18°C° 0.6 mm 1 m/s 593 mmHg 92%
    21:00 +16°C° 0.6 mm 0 m/s 593 mmHg 92%
    22:00 +16°C° 0.6 mm 0 m/s 594 mmHg 92%
    23:00 +16°C° 0.3 mm 0 m/s 593 mmHg 92%

    22 Aprilie, Luni

    Timp Temperatura Precipitaţii Vânt Presiune Umiditate
    00:00 +15°C° 0.3 mm 0 m/s 593 mmHg 92%
    01:00 +15°C° 0.3 mm 0 m/s 592 mmHg 92%
    02:00 +15°C° 0.3 mm 0 m/s 592 mmHg 92%
    03:00 +15°C° 0.3 mm 0 m/s 592 mmHg 91%
    04:00 +15°C° 0.3 mm 0 m/s 592 mmHg 91%
    05:00 +15°C° 0.3 mm 0 m/s 592 mmHg 89%
    06:00 +16°C° 0.3 mm 0 m/s 593 mmHg 87%
    07:00 +16°C° 0.3 mm 0 m/s 594 mmHg 85%
    08:00 +16°C° 0.6 mm 0 m/s 594 mmHg 84%
    09:00 +19°C° 0.6 mm 1 m/s 594 mmHg 84%
    10:00 +19°C° 0.6 mm 1 m/s 595 mmHg 83%
    11:00 +19°C° 1.8 mm 1 m/s 594 mmHg 85%
    12:00 +19°C° 1.8 mm 1 m/s 593 mmHg 87%
    13:00 +19°C° 1.8 mm 1 m/s 593 mmHg 89%
    14:00 +19°C° 2.9 mm 1 m/s 592 mmHg 89%
    15:00 +19°C° 2.9 mm 1 m/s 592 mmHg 90%
    16:00 +19°C° 2.9 mm 1 m/s 591 mmHg 90%
    17:00 +16°C° 2.7 mm 0 m/s 592 mmHg 91%
    18:00 +16°C° 2.7 mm 0 m/s 592 mmHg 92%
    19:00 +16°C° 2.7 mm 0 m/s 592 mmHg 92%
    20:00 +16°C° 1.6 mm 0 m/s 593 mmHg 93%
    21:00 +15°C° 1.6 mm 0 m/s 593 mmHg 93%
    22:00 +15°C° 1.6 mm 0 m/s 593 mmHg 94%
    23:00 +15°C° 1.2 mm 0 m/s 593 mmHg 93%

    23 Aprilie, Marţi

    Timp Temperatura Precipitaţii Vânt Presiune Umiditate
    00:00 +15°C° 1.2 mm 0 m/s 592 mmHg 92%
    01:00 +15°C° 1.2 mm 0 m/s 592 mmHg 92%
    02:00 +15°C° 1 mm 0 m/s 592 mmHg 91%
    03:00 +15°C° 1 mm 0 m/s 592 mmHg 91%
    04:00 +16°C° 1 mm 1 m/s 592 mmHg 90%
    05:00 +15°C° 0.9 mm 0 m/s 592 mmHg 88%
    06:00 +15°C° 0.9 mm 0 m/s 593 mmHg 86%
    07:00 +16°C° 0.9 mm 0 m/s 594 mmHg 84%
    08:00 +16°C° 0.9 mm 0 m/s 594 mmHg 84%
    09:00 +19°C° 0.9 mm 1 m/s 594 mmHg 83%
    10:00 +19°C° 0.9 mm 1 m/s 594 mmHg 83%
    11:00 +19°C° 1.7 mm 1 m/s 594 mmHg 84%
    12:00 +19°C° 1.7 mm 1 m/s 593 mmHg 86%
    13:00 +19°C° 1.7 mm 1 m/s 592 mmHg 87%
    14:00 +19°C° 1.5 mm 1 m/s 592 mmHg 87%
    15:00 +19°C° 1.5 mm 1 m/s 592 mmHg 87%
    16:00 +19°C° 1.5 mm 1 m/s 591 mmHg 86%
    17:00 +18°C° 0.9 mm 1 m/s 592 mmHg 87%
    18:00 +18°C° 0.9 mm 1 m/s 592 mmHg 87%
    19:00 +16°C° 0.9 mm 1 m/s 592 mmHg 88%
    20:00 +16°C° 0.6 mm 1 m/s 593 mmHg 87%
    21:00 +16°C° 0.6 mm 1 m/s 593 mmHg 86%
    22:00 +16°C° 0.6 mm 1 m/s 593 mmHg 86%
    23:00 +16°C° 0.3 mm 1 m/s 593 mmHg 86%

    24 Aprilie, Miercuri

    Timp Temperatura Precipitaţii Vânt Presiune Umiditate
    00:00 +15°C° 0.3 mm 1 m/s 592 mmHg 86%
    01:00 +15°C° 0.3 mm 1 m/s 592 mmHg 86%
    02:00 +15°C° 0.2 mm 1 m/s 592 mmHg 86%
    03:00 +15°C° 0.2 mm 1 m/s 592 mmHg 86%
    04:00 +15°C° 0.2 mm 1 m/s 591 mmHg 85%
    05:00 +15°C° 0.3 mm 1 m/s 592 mmHg 83%
    06:00 +16°C° 0.3 mm 1 m/s 593 mmHg 81%
    07:00 +18°C° 0.3 mm 1 m/s 594 mmHg 79%
    08:00 +19°C° 0.4 mm 1 m/s 594 mmHg 78%
    09:00 +20°C° 0.4 mm 1 m/s 595 mmHg 78%
    10:00 +20°C° 0.4 mm 1 m/s 595 mmHg 77%
    11:00 +20°C° 1.6 mm 1 m/s 594 mmHg 80%
    12:00 +20°C° 1.6 mm 1 m/s 594 mmHg 82%
    13:00 +20°C° 1.6 mm 1 m/s 593 mmHg 84%
    14:00 +19°C° 2.7 mm 1 m/s 592 mmHg 86%
    15:00 +19°C° 2.7 mm 1 m/s 592 mmHg 87%
    16:00 +19°C° 2.7 mm 1 m/s 592 mmHg 89%
    17:00 +19°C° 1.7 mm 1 m/s 592 mmHg 89%
    18:00 +18°C° 1.7 mm 1 m/s 592 mmHg 89%
    19:00 +18°C° 1.7 mm 1 m/s 593 mmHg 90%
    20:00 +18°C° 1.5 mm 1 m/s 593 mmHg 90%
    21:00 +18°C° 1.5 mm 1 m/s 593 mmHg 89%
    22:00 +18°C° 1.5 mm 1 m/s 593 mmHg 89%
    23:00 +18°C° 1.4 mm 1 m/s 593 mmHg 89%
    Arată mai mult